This is the latest recevied weather packets stored in our database for station/object SQ5SUI-3. If no packets are shown the sender has not sent any weather packets the latest 10 day(s).
| Time | Temp. | Humidity | Pressure | Rain* | Wind** | Luminosity | Snow |
|---|---|---|---|---|---|---|---|
| 1777609522 | 7.22° C | 51% | 996 hPa | 0 mm | - | - | - |
| 1777607721 | 6.67° C | 55% | 995.8 hPa | 0 mm | - | - | - |
| 1777605921 | 6.67° C | 50% | 995.8 hPa | 0 mm | - | - | - |
| 1777604121 | 6.67° C | 49% | 995.7 hPa | 0 mm | - | - | - |
| 1777602322 | 7.22° C | 45% | 995.7 hPa | 0 mm | - | - | - |
| 1777584322 | 6.67° C | 53% | 995 hPa | 0 mm | - | - | - |
| 1777580721 | 7.78° C | 39% | 995.1 hPa | 0 mm | - | - | - |
| 1777578921 | 7.22° C | 39% | 995.1 hPa | 0 mm | - | - | - |
| 1777573521 | 8.33° C | 30% | 995.2 hPa | 0 mm | - | - | - |
| 1777571722 | 10° C | 24% | 995.6 hPa | 0 mm | - | - | - |
| 1777569920 | 10.56° C | 20% | 995.9 hPa | 0 mm | - | - | - |
| 1777568121 | 10.56° C | 17% | 996.1 hPa | 0 mm | - | - | - |
| 1777562722 | 12.78° C | 14% | 996.3 hPa | 0 mm | - | - | - |
| 1777560922 | 11.67° C | 14% | 995.8 hPa | 0 mm | - | - | - |
| 1777557322 | 11.67° C | 13% | 995.2 hPa | 0 mm | - | - | - |
| 1777553721 | 13.33° C | 15% | 994.2 hPa | 0 mm | - | - | - |
| 1777551920 | 11.67° C | 14% | 993.5 hPa | 0 mm | - | - | - |
| 1777546522 | 10.56° C | 16% | 992.7 hPa | 0 mm | - | - | - |
| 1777544721 | 10.56° C | 19% | 992.6 hPa | 0 mm | - | - | - |
| 1777541120 | 9.44° C | 19% | 992.1 hPa | 0 mm | - | - | - |
| 1777539320 | 8.33° C | 21% | 992 hPa | 0 mm | - | - | - |
| 1777537520 | 8.33° C | 22% | 992 hPa | 0 mm | - | - | - |
| 1777535722 | 7.78° C | 20% | 992 hPa | 0 mm | - | - | - |
| 1777533922 | 7.22° C | 36% | 991.9 hPa | 0 mm | - | - | - |
| 1777532121 | 5° C | 44% | 991.8 hPa | 0 mm | - | - | - |
* Rain latest hour (hover to see other rain measurements)
** Current wind speed in m/s (hover to see current wind gust speed)